Location: Rumah Geringgi
(3.1667°N, 113.1667°E)
Time: 20:40:10
(UTC+00:00)

ARIANE 5 DEB (SYLDA) - Pass Details

Date: 03 August 2024
Orbit: 604 x 35745 km, 6.0° (Epoch: 19 September)

Event Time Altitude Azimuth Distance (km) Brightness Sun altitude
Exits shadow 21:27:39 23° 270° (W) 1,291 4.1 -14.7°
Maximum altitude 21:29:47 80° 355° (N) 637 3.1 -14.2°
Drops below altitude 10° 21:34:55 10° 83° (E) 2,879 7.9 -13.0°
Sets 21:39:14 0° 84° (E) 5,050 9.5 -12.0°
